Location: North Evanston
(42.0634°N, 87.6976°W)
Time: 22:59:18
(UTC+00:00)

Transit 2A - Pass Details

Date: 14 May 2026
Orbit: 595 x 949 km, 66.7° (Epoch: 5 June)

Event Time Altitude Azimuth Distance (km) Brightness Sun altitude
Rises 07:59:47 0° 314° (NW) 3,107 9.3 -22.0°
Reaches altitude 10° 08:02:53 10° 296° (WNW) 2,116 8.2 -21.7°
Enters shadow 08:03:32 12° 289° (WNW) 1,951 7.9 -21.6°
Maximum altitude 08:05:58 17° 255° (WSW) 1,615 - -21.3°
Drops below altitude 10° 08:08:55 10° 213° (SSW) 1,997 - -21.0°
Sets 08:11:44 0° 194° (SSW) 2,859 - -20.7°
